Torna al catalogo

STARLINK-35847

AttivoComunicazioniVLEO
NORAD 66621·PAYLOAD·🇺🇸 United States

Lanciato Nov 23, 2025 da Vandenberg Space Force Base

Loading…

Prossimi Passaggi (prossime 24 ore)

TLE

AggiornatoSource: CelesTrak SupGP

Epoca: Sep 14, 2026, 14:11 UTC

1 66621C 25271E   26257.59145833 -.00017517  00000+0 -51779-3 0  2579
2 66621  53.1581 341.4495 0001223  81.6070 263.4175 15.34385032    19

Traccia STARLINK-35847 in tempo reale con AllMySat

Download on the App Store